GW4455 Weather Reports


time (UTC)temp
C
wind
direction
speed
KPH
gust
KPH
rain 1hr
cm
rain 24hr
cm
rain mn
cm
humidity
%
barometer
mb
20260504160201 10 39 11.3 25.7 0.00 0.00 0.00 44 1012.6
20260504150841 10 33 8.0 27.4 0.00 0.00 0.00 47 1012.6
20260504150201 10 2 11.3 30.6 0.00 0.00 0.00 47 1012.6
20260504140201 10 320 17.7 25.7 0.00 0.00 0.00 46 1011.8
20260504130201 5 206 9.7 17.7 0.00 0.00 0.00 61 1009.1
20260504110202 3 35 1.6 3.2 0.00 0.00 0.00 76 1008.3
20260504100200 3 69 0.0 1.6 0.00 0.00 0.00 76 1008.3
20260504081521 5 304 1.6 4.8 0.00 0.00 0.00 67 1008.7
20260504080841 5 0 1.6 4.8 0.00 0.00 0.00 66 1008.7
20260504080201 5 241 1.6 3.2 0.00 0.00 0.00 67 1008.7
20260504070201 6 255 3.2 6.4 0.00 0.00 0.00 64 1009.1
20260504060201 8 296 1.6 3.2 0.00 0.00 0.00 59 1009.5
20260504045521 10 30 1.6 3.2 0.00 0.00 0.00 53 1009.9
20260504044201 10 105 1.6 4.8 0.00 0.00 0.00 52 1009.9
20260504043521 10 80 1.6 4.8 0.00 0.00 0.00 51 1009.9
20260504042841 10 7 3.2 4.8 0.00 0.00 0.00 49 1009.9
20260504042201 10 42 3.2 4.8 0.00 0.00 0.00 50 1009.9
20260504040841 11 352 1.6 3.2 0.00 0.00 0.00 47 1010.3
20260504040201 12 47 1.6 3.2 0.00 0.00 0.00 45 1010.3
20260504035521 11 350 0.0 3.2 0.00 0.00 0.00 46 1010.3
20260504034841 12 59 1.6 4.8 0.00 0.00 0.00 44 1010.3
20260504034201 12 101 3.2 6.4 0.00 0.00 0.00 44 1010.3
20260504033521 12 67 3.2 6.4 0.00 0.00 0.00 44 1010.3
20260504032841 12 78 4.8 6.4 0.00 0.00 0.00 44 1010.3
20260504032201 12 359 1.6 4.8 0.00 0.00 0.00 42 1009.9
20260504031521 13 58 3.2 8.0 0.00 0.00 0.00 41 1010.3
20260504030841 13 100 4.8 8.0 0.00 0.00 0.00 39 1009.9
20260504030201 13 63 4.8 8.0 0.00 0.00 0.00 39 1010.3
20260504025521 14 40 3.2 8.0 0.00 0.00 0.00 38 1009.9
20260504024841 13 62 1.6 4.8 0.00 0.00 0.00 40 1009.9
20260504024201 14 42 4.8 4.8 0.00 0.00 0.00 38 1009.9
20260504023521 15 34 3.2 8.0 0.00 0.00 0.00 36 1010.3
20260504022841 15 44 6.4 9.7 0.00 0.00 0.00 36 1009.9
20260504022201 16 109 6.4 9.7 0.00 0.00 0.00 32 1009.9
20260504021522 16 111 4.8 9.7 0.00 0.00 0.00 32 1009.9
20260504020841 16 118 4.8 11.3 0.00 0.00 0.00 32 1009.9
20260504020201 16 109 8.0 11.3 0.00 0.00 0.00 32 1009.9
20260504015521 17 111 6.4 12.9 0.00 0.00 0.00 30 1009.9
20260504014841 17 100 8.0 12.9 0.00 0.00 0.00 29 1009.9
20260504014201 17 82 4.8 11.3 0.00 0.00 0.00 29 1009.9
20260504013521 17 74 8.0 14.5 0.00 0.00 0.00 28 1009.9
20260504012841 17 51 6.4 14.5 0.00 0.00 0.00 28 1009.9
20260504012201 18 60 8.0 14.5 0.00 0.00 0.00 27 1009.9
20260504010841 18 52 9.7 14.5 0.00 0.00 0.00 26 1009.9
20260504010201 19 44 6.4 12.9 0.00 0.00 0.00 24 1009.9
20260504005521 18 57 6.4 12.9 0.00 0.00 0.00 24 1009.9
20260504004841 18 92 8.0 12.9 0.00 0.00 0.00 24 1009.9
20260504003521 18 74 8.0 19.3 0.00 0.00 0.00 26 1009.9
20260504002841 18 85 11.3 19.3 0.00 0.00 0.00 27 1010.3
20260504002201 18 91 9.7 16.1 0.00 0.00 0.00 26 1010.3
20260504001521 18 55 8.0 16.1 0.00 0.00 0.00 27 1010.6
20260504000841 18 52 8.0 22.5 0.00 0.00 0.00 26 1010.3
20260504000201 18 73 6.4 12.9 0.00 0.00 0.00 27 1010.6
20260503234201 19 321 4.8 11.3 0.00 0.00 0.00 21 1010.6
20260503233521 19 77 1.6 27.4 0.00 0.00 0.00 21 1010.6
20260503232841 18 343 9.7 22.5 0.00 0.00 0.00 22 1010.6
20260503231521 18 32 4.8 20.9 0.00 0.00 0.00 27 1011.0
20260503230841 17 42 8.0 22.5 0.00 0.00 0.00 27 1011.0
20260503230201 18 43 12.9 22.5 0.00 0.00 0.00 27 1011.0
20260503225521 18 38 9.7 25.7 0.00 0.00 0.00 28 1010.6
20260503224841 18 37 14.5 29.0 0.00 0.00 0.00 28 1010.6
20260503223521 18 40 17.7 30.6 0.00 0.00 0.00 26 1010.6
20260503222841 18 31 12.9 25.7 0.00 0.00 0.00 26 1011.4
20260503222201 18 29 14.5 32.2 0.00 0.00 0.00 27 1010.6
20260503221521 18 21 16.1 37.0 0.00 0.00 0.00 24 1010.6
20260503220841 20 1 16.1 43.5 0.00 0.00 0.00 22 1010.6
20260503220201 20 304 20.9 51.5 0.00 0.00 0.00 15 1010.6
20260503215521 18 270 12.9 43.5 0.00 0.00 0.00 18 1011.0
20260503214841 18 260 12.9 51.5 0.00 0.00 0.00 19 1011.0
20260503214201 19 275 19.3 51.5 0.00 0.00 0.00 17 1011.4
20260503213521 19 305 25.7 45.1 0.00 0.00 0.00 16 1011.0
20260503212841 18 312 12.9 35.4 0.00 0.00 0.00 19 1011.4
20260503212201 18 320 22.5 51.5 0.00 0.00 0.00 20 1011.4
20260503211521 17 321 25.7 57.9 0.00 0.00 0.00 23 1011.4
20260503210841 18 311 33.8 57.9 0.00 0.00 0.00 20 1011.8
20260503205521 19 308 20.9 38.6 0.00 0.00 0.00 18 1011.4
20260503204201 20 327 8.0 46.7 0.00 0.00 0.00 19 1011.4
20260503203521 20 272 16.1 41.8 0.00 0.00 0.00 15 1011.8
20260503202841 20 278 20.9 41.8 0.00 0.00 0.00 14 1011.8
20260503202201 20 254 16.1 35.4 0.00 0.00 0.00 14 1011.8
20260503201521 21 242 19.3 32.2 0.00 0.00 0.00 16 1011.4
20260503200201 20 272 11.3 22.5 0.00 0.00 0.00 17 1011.8
20260503195521 20 248 9.7 22.5 0.00 0.00 0.00 17 1012.2
20260503194201 20 251 8.0 22.5 0.00 0.00 0.00 20 1012.2
20260503193521 19 226 11.3 25.7 0.00 0.00 0.00 20 1012.6
20260503192201 18 276 1.6 20.9 0.00 0.00 0.00 22 1013.0
20260503191521 19 239 11.3 20.9 0.00 0.00 0.00 22 1013.0
20260503190841 18 277 9.7 20.9 0.00 0.00 0.00 22 1013.0
20260503190201 18 264 6.4 27.4 0.00 0.00 0.00 22 1013.4
20260503185521 18 233 12.9 24.1 0.00 0.00 0.00 23 1013.4
20260503184201 17 223 14.5 24.1 0.00 0.00 0.00 23 1013.8
20260503183521 17 215 8.0 20.9 0.00 0.00 0.00 24 1013.8
20260503182841 17 262 11.3 22.5 0.00 0.00 0.00 24 1013.8
20260503182201 17 265 11.3 22.5 0.00 0.00 0.00 25 1014.2
20260503181521 17 265 9.7 19.3 0.00 0.00 0.00 26 1014.2
20260503180201 17 257 9.7 20.9 0.00 0.00 0.00 25 1014.6
20260503175521 16 287 6.4 17.7 0.00 0.00 0.00 28 1014.6
20260503174841 16 272 6.4 20.9 0.00 0.00 0.00 28 1014.6
20260503174201 16 228 9.7 19.3 0.00 0.00 0.00 29 1015.0
20260503173521 16 272 9.7 19.3 0.00 0.00 0.00 29 1015.0
20260503172201 15 251 9.7 19.3 0.00 0.00 0.00 31 1015.0
20260503171521 15 264 9.7 17.7 0.00 0.00 0.00 33 1015.0
20260503170201 15 224 6.4 16.1 0.00 0.00 0.00 34 1015.4